Sturgis, MI

9:03 AM EST on December 14, 2019 (GMT -0500)
Kirsch Municipal

Weather History for KIRS - October, 2019

Change the Weather History Date:

Wednesday, October 2, 2019

  Actual Average (WUND) Record (WUND)
Temperature  
Mean Temperature 68 °F -  
Max Temperature 76 °F - - (-1)
Min Temperature 60 °F - - (-1)
Cooling Degree Days 3    
Growing Degree Days 18 (Base 50)    
Moisture  
Dew Point 64 °F    
Average Humidity 84    
Maximum Humidity 89    
Minimum Humidity 67    
Precipitation  
Precipitation 0.11 in - - ()
Sea Level Pressure  
Sea Level Pressure 29.91 in    
Wind  
Wind Speed 4 mph ()    
Max Wind Speed 13 mph    
Max Gust Speed 17 mph    
Visibility 8.3 miles    
Events Rain    
Averages and records for this station are not official NWS values.
T = Trace of Precipitation, MM = Missing Value Source: Averaged Metar Reports

Daily Weather History Graph

Daily Weather History Graph

Search for Another Location

Airport or City:

Astronomy

Oct. 02, 2019 Rise Set
Actual Time 7:39 AM EDT 7:22 PM EDT
Civil Twilight 7:11 AM EDT 7:49 PM EDT
Nautical Twilight 6:39 AM EDT 8:22 PM EDT
Astronomical Twilight 6:06 AM EDT 8:54 PM EDT
Moon 12:07 PM EDT (10/2) 10:11 PM EDT (10/2)
Length of Visible Light 12h 38m
Length of Day
11h 42m
Waxing Crescent, 20% of the Moon is Illuminated
Oct 2
Waxing Crescent
Oct 5
First Quarter
Oct 13
Full
Oct 21
Last Quarter
Oct 27
New

Hourly Weather History & Observations

Time (EDT) Temp. Dew Point Humidity Pressure Visibility Wind Dir Wind Speed Gust Speed Precip Events Conditions
12:18 AM 74.7 °F 66.4 °F 75% 29.89 in 10.0 mi SW 5.8 mph - N/A   Clear
12:36 AM 75.2 °F 66.2 °F 73% 29.91 in 10.0 mi SW 5.8 mph - N/A   Scattered Clouds
12:55 AM 75.7 °F 65.5 °F 70% 29.91 in 10.0 mi SW 6.9 mph - N/A   Scattered Clouds
12:56 AM 75.7 °F 65.5 °F 70% 29.91 in 10.0 mi SW 6.9 mph - N/A   Scattered Clouds
1:15 AM 75.4 °F 65.3 °F 71% 29.90 in 10.0 mi SW 6.9 mph - N/A   Scattered Clouds
1:39 AM 75.6 °F 64.8 °F 69% 29.91 in 10.0 mi WSW 5.8 mph - N/A   Clear
1:57 AM 76.1 °F 64.4 °F 67% 29.90 in 10.0 mi SW 6.9 mph - N/A   Clear
2:15 AM 75.2 °F 64.4 °F 69% 29.90 in 10.0 mi SW 5.8 mph - N/A   Clear
2:16 AM 75.2 °F 64.4 °F 69% 29.90 in 10.0 mi SW 5.8 mph - N/A   Clear
2:35 AM 74.5 °F 64.6 °F 71% 29.91 in 10.0 mi SW 5.8 mph - N/A   Clear
2:55 AM 74.5 °F 64.4 °F 71% 29.90 in 10.0 mi SW 5.8 mph - N/A   Clear
3:18 AM 74.5 °F 64.4 °F 71% 29.89 in 10.0 mi WSW 4.6 mph - N/A   Scattered Clouds
3:36 AM 75.2 °F 64.4 °F 69% 29.89 in 10.0 mi Calm Calm - N/A   Mostly Cloudy
3:55 AM 74.1 °F 64.4 °F 72% 29.89 in 10.0 mi NW 3.5 mph - N/A   Scattered Clouds
3:56 AM 74.3 °F 64.4 °F 71% 29.89 in 10.0 mi Calm Calm - N/A   Scattered Clouds
4:15 AM 73.6 °F 64.4 °F 73% 29.88 in 10.0 mi Calm Calm - N/A   Scattered Clouds
4:16 AM 73.2 °F 64.6 °F 74% 29.88 in 10.0 mi Calm Calm - N/A   Scattered Clouds
4:39 AM 72.1 °F 64.9 °F 78% 29.87 in 10.0 mi Calm Calm - N/A   Scattered Clouds
4:57 AM 71.6 °F 65.7 °F 81% 29.87 in 10.0 mi Calm Calm - N/A   Clear
5:15 AM 70.7 °F 65.7 °F 84% 29.88 in 10.0 mi Calm Calm - N/A   Clear
5:35 AM 70.3 °F 65.8 °F 86% 29.87 in 10.0 mi Calm Calm - N/A   Scattered Clouds
5:55 AM 71.1 °F 65.7 °F 83% 29.87 in 10.0 mi Calm Calm - N/A   Scattered Clouds
6:00 AM 70.3 °F 65.8 °F 86% 29.87 in 10.0 mi Calm Calm - N/A   Clear
6:18 AM 70.7 °F 65.5 °F 83% 29.87 in 10.0 mi Calm Calm - N/A   Clear
6:36 AM 70.9 °F 65.3 °F 82% 29.87 in 10.0 mi Calm Calm - N/A   Clear
6:55 AM 69.8 °F 65.3 °F 86% 29.87 in 10.0 mi SSE 3.5 mph - N/A   Clear
7:15 AM 69.8 °F 65.3 °F 86% 29.87 in 10.0 mi Calm Calm - N/A   Clear
7:16 AM 69.8 °F 65.3 °F 86% 29.87 in 10.0 mi Calm Calm - N/A   Clear
7:39 AM 70.0 °F 64.9 °F 84% 29.89 in 10.0 mi Calm Calm - N/A   Clear
8:15 AM 70.0 °F 65.3 °F 85% 29.89 in 10.0 mi Calm Calm - N/A   Clear
8:16 AM 70.0 °F 65.3 °F 85% 29.89 in 10.0 mi Calm Calm - N/A   Clear
8:35 AM 70.3 °F 65.5 °F 85% 29.88 in 10.0 mi South 4.6 mph - N/A   Clear
8:36 AM 70.5 °F 65.7 °F 85% 29.89 in 10.0 mi South 3.5 mph - N/A   Clear
8:55 AM 70.9 °F 66.0 °F 85% 29.88 in 10.0 mi SSE 3.5 mph - N/A   Clear
9:00 AM 71.2 °F 65.7 °F 82% 29.88 in 10.0 mi Calm Calm - N/A   Scattered Clouds
9:18 AM 71.8 °F 65.5 °F 80% 29.89 in 10.0 mi Calm Calm - N/A   Scattered Clouds
9:36 AM 72.3 °F 65.7 °F 79% 29.89 in 10.0 mi Calm Calm - N/A   Overcast
9:55 AM 72.5 °F 66.2 °F 81% 29.90 in 10.0 mi SSW 4.6 mph - N/A   Overcast
10:15 AM 73.0 °F 66.0 °F 79% 29.89 in 10.0 mi SW 5.8 mph - N/A   Overcast
10:16 AM 73.2 °F 66.2 °F 79% 29.89 in 10.0 mi SW 5.8 mph - N/A   Overcast
10:39 AM 72.5 °F 67.1 °F 83% 29.90 in 7.0 mi Calm Calm - N/A   Light Drizzle
10:57 AM 72.0 °F 67.6 °F 86% 29.91 in 3.0 mi WSW 3.5 mph - 0.01 in Rain Rain
11:15 AM 71.8 °F 68.0 °F 88% 29.90 in 4.0 mi SW 4.6 mph - 0.01 in Rain Light Rain
11:35 AM 71.8 °F 68.2 °F 88% 29.89 in 4.0 mi SSW 3.5 mph - 0.02 in   Drizzle
11:36 AM 72.0 °F 68.4 °F 88% 29.89 in 4.0 mi SSW 3.5 mph - 0.02 in   Drizzle
11:55 AM 72.0 °F 68.4 °F 88% 29.89 in 5.0 mi WSW 3.5 mph - 0.02 in Rain Rain
12:00 PM 72.0 °F 68.4 °F 88% 29.89 in 5.0 mi Calm Calm - N/A   Drizzle
12:18 PM 71.8 °F 68.2 °F 88% 29.91 in 2.5 mi WSW 3.5 mph - 0.04 in Rain Rain
12:36 PM 71.6 °F 68.0 °F 88% 29.90 in 2.5 mi WSW 3.5 mph - 0.06 in Rain Heavy Rain
12:55 PM 71.6 °F 68.0 °F 88% 29.91 in 5.0 mi West 4.6 mph - 0.06 in   Drizzle
12:56 PM 71.6 °F 68.0 °F 88% 29.91 in 5.0 mi WSW 4.6 mph - 0.06 in   Drizzle
1:15 PM 71.6 °F 68.0 °F 88% 29.91 in 2.0 mi Calm Calm - 0.01 in   Drizzle
1:16 PM 71.6 °F 68.0 °F 88% 29.91 in 2.0 mi Calm Calm - 0.01 in   Drizzle
1:39 PM 71.8 °F 68.2 °F 88% 29.91 in 10.0 mi Calm Calm - 0.01 in   Overcast
1:57 PM 72.0 °F 68.4 °F 88% 29.91 in 7.0 mi Calm Calm - 0.01 in   Overcast
2:16 PM 72.1 °F 68.5 °F 88% 29.90 in 7.0 mi Calm Calm - N/A   Overcast
2:35 PM 72.5 °F 68.9 °F 88% 29.90 in 2.5 mi Calm Calm - N/A   Overcast
2:55 PM 72.0 °F 68.4 °F 88% 29.89 in 3.0 mi NNE 4.6 mph - N/A   Overcast
3:00 PM 71.2 °F 67.6 °F 88% 29.90 in 3.0 mi NE 10.4 mph - N/A   Overcast
3:18 PM 67.1 °F 63.5 °F 88% 29.90 in 3.0 mi NE 8.1 mph - N/A   Drizzle
3:36 PM 66.2 °F 62.6 °F 88% 29.90 in 10.0 mi NE 11.5 mph 16.1 mph N/A   Overcast
3:55 PM 65.3 °F 61.9 °F 89% 29.90 in 4.0 mi NE 11.5 mph - N/A Rain Rain
4:15 PM 64.9 °F 61.5 °F 89% 29.91 in 5.0 mi NE 8.1 mph - N/A   Light Drizzle
4:39 PM 64.4 °F 60.8 °F 88% 29.92 in 7.0 mi NE 9.2 mph - N/A   Overcast
4:57 PM 63.7 °F 60.3 °F 89% 29.92 in 7.0 mi ENE 8.1 mph - N/A Rain Rain
5:15 PM 63.1 °F 59.9 °F 89% 29.93 in 5.0 mi ENE 6.9 mph - N/A Rain Light Rain
5:35 PM 63.5 °F 59.9 °F 88% 29.93 in 5.0 mi NE 8.1 mph - N/A   Light Drizzle
5:55 PM 63.0 °F 59.5 °F 89% 29.94 in 7.0 mi NE 8.1 mph 16.1 mph N/A Rain Rain
6:00 PM 63.1 °F 59.9 °F 89% 29.94 in 5.0 mi ENE 6.9 mph - N/A Rain Rain
6:18 PM 63.0 °F 59.5 °F 89% 29.95 in 7.0 mi NE 10.4 mph - N/A Rain Light Rain
6:36 PM 62.8 °F 59.4 °F 89% 29.95 in 10.0 mi ENE 9.2 mph - N/A   Overcast
6:55 PM 62.8 °F 59.4 °F 89% 29.95 in 10.0 mi ENE 10.4 mph - N/A   Overcast
7:15 PM 62.8 °F 59.4 °F 89% 29.96 in 10.0 mi ENE 10.4 mph - N/A   Overcast
7:16 PM 62.8 °F 59.4 °F 89% 29.96 in 10.0 mi ENE 10.4 mph - N/A   Overcast
7:39 PM 62.8 °F 59.4 °F 89% 29.96 in 10.0 mi ENE 12.7 mph - N/A   Overcast
7:57 PM 62.8 °F 59.4 °F 89% 29.97 in 10.0 mi NNE 6.9 mph - N/A   Overcast
8:15 PM 62.8 °F 59.4 °F 89% 29.98 in 10.0 mi ENE 10.4 mph - N/A   Overcast
8:35 PM 62.6 °F 59.2 °F 89% 29.98 in 10.0 mi ENE 10.4 mph - N/A   Overcast
8:55 PM 62.1 °F 58.6 °F 89% 29.98 in 10.0 mi ENE 11.5 mph - N/A Rain Light Rain
9:00 PM 61.9 °F 58.5 °F 89% 29.98 in 10.0 mi ENE 12.7 mph - N/A Rain Light Rain
9:18 PM 61.7 °F 58.1 °F 88% 29.96 in 10.0 mi ENE 10.4 mph - 0.01 in Rain Light Rain
9:36 PM 61.3 °F 58.1 °F 89% 29.95 in 10.0 mi East 11.5 mph 17.3 mph 0.01 in   Overcast
9:55 PM 61.3 °F 57.9 °F 89% 29.95 in 7.0 mi East 9.2 mph - 0.01 in   Overcast
10:15 PM 61.0 °F 57.6 °F 88% 29.96 in 10.0 mi East 9.2 mph - N/A   Overcast
10:16 PM 61.0 °F 57.6 °F 88% 29.96 in 10.0 mi East 9.2 mph - N/A   Overcast
10:39 PM 61.0 °F 57.6 °F 88% 29.96 in 10.0 mi ESE 6.9 mph - N/A   Overcast
10:57 PM 61.2 °F 57.7 °F 88% 29.97 in 10.0 mi East 6.9 mph - N/A   Overcast
11:15 PM 60.8 °F 57.4 °F 88% 29.97 in 10.0 mi East 5.8 mph - N/A   Overcast
11:35 PM 60.8 °F 57.2 °F 88% 29.97 in 10.0 mi East 5.8 mph - N/A   Overcast
11:55 PM 60.3 °F 56.8 °F 88% 29.97 in 10.0 mi East 6.9 mph - N/A   Overcast